Terminal Aerodrome Forecast
Issued by NWS

Home | Current Version | Previous Version | Text Only | Print | Product List | Glossary On
Versions: 1 2 3 4 5 6 7 8 9 10 11 12 13 14 15 16 17
000
FTUS42 TJSJ 281137
TAFIST
TAF
TIST 281137Z 2812/2912 08011KT P6SM SCT030
     FM281400 10014G23KT P6SM VCSH SCT025 SCT030 SCT050
     FM282300 08012KT P6SM VCSH FEW025 SCT040=

USA.gov is the U.S. government's official web portal to all federal, state and local government web resources and services.